Voltar ao catálogo

CZ-6A DEB

AtivoSSO
NORAD 54475·DEBRIS·🇨🇳 China

Lançado Nov 11, 2022 de Taiyuan Satellite Launch Center

Loading…

Próximas Passagens (próximas 24 horas)

TLE

AtualizadoSource: Space-Track

Época: Sep 14, 2026, 04:44 UTC

1 54475U 22151HB  26257.19750374  .00001818  00000-0  31961-3 0  9995
2 54475  98.5932 335.5421 0131622 328.0514  31.2754 14.63539383203691

Acompanhe CZ-6A DEB em tempo real com AllMySat

Download on the App Store